Location: Unspecified
(0.0000°N, 0.0000°E)
Time: 05:04:38
(UTC+00:00)

Tiros 1 despin weight - Pass Details

Date: 07 October 2020
Orbit: 594 x 641 km, 48.2° (Epoch: 28 October)

Event Time Altitude Azimuth Distance (km) Brightness Sun altitude
Rises 16:29:55 0° 335° (NNW) 2,901 ? 19.3°
Reaches altitude 10° 16:32:21 10° 343° (NNW) 2,003 ? 18.7°
Maximum altitude 16:36:37 37° 51° (NE) 983 ? 17.7°
Drops below altitude 10° 16:40:57 10° 119° (ESE) 2,024 ? 16.6°
Sets 16:43:25 0° 127° (SE) 2,937 ? 16.0°
